Wind_Speed
7 6 5 5 4 4 4 4 3 3 3 4 4 5 5 5 5 6 7 7 8 9 10 10 10 11 11 12 13 14 14 15 16 17 17 18 19 20
7 6 5 5 5 5 5 5 5 4 5 5 6 6 7 7 8 8 9 10 10 11 11 12 12 12 12 13 14 15 16 17 18 18 19 20 21 22
6 6 6 5 6 6 6 6 6 6 7 7 8 8 9 10 10 11 12 12 12 13 14 14 15 15 16 15 15 16 17 18 19 20 21 21 22 23
6 7 7 7 7 7 8 8 8 8 8 9 9 10 11 11 12 14 14 15 15 15 16 16 17 18 18 19 19 19 19 20 21 22 23 23 24 25
8 8 8 8 9 9 10 10 10 10 10 11 12 13 13 14 15 15 16 17 17 18 18 19 19 20 21 22 22 22 23 23 24 24 25 25 26 27
9 10 10 10 11 11 12 12 12 13 13 14 14 15 16 16 17 18 19 20 20 20 20 21 22 22 23 24 24 25 26 26 27 28 28 29 30 30
11 11 12 13 13 14 14 15 15 16 16 17 17 17 18 19 19 20 21 22 23 23 24 24 25 26 26 27 28 29 30 30 31 32 32 33 34 34
13 14 14 15 15 16 16 17 17 18 18 19 20 20 21 21 22 23 24 25 25 26 27 27 28 29 30 31 31 32 33 34 35 36 36 37 38 39
16 16 17 17 18 18 18 19 19 20 21 21 22 23 23 24 25 26 27 27 28 28 29 30 31 32 33 35 35 36 37 37 38 39 40 40 41 43
18 18 19 19 20 20 21 21 22 23 23 24 25 25 26 27 27 28 29 29 30 31 32 32 33 34 35 37 38 39 40 41 42 43 43 44 45 46
20 21 22 22 23 23 24 24 25 26 26 27 28 28 29 29 30 31 31 32 33 34 35 36 37 38 38 40 41 42 43 45 46 47 47 48 49 50
23 23 24 25 26 26 27 28 28 29 30 31 31 31 32 33 33 34 35 36 36 37 38 40 41 42 42 43 44 46 47 48 49 50 51 53 54 55
25 26 27 28 29 29 30 31 32 32 33 34 34 35 35 36 36 37 38 39 40 41 42 43 44 45 46 46 47 49 51 52 53 54 55 56 58 59
28 29 30 31 31 32 33 34 35 36 36 37 37 38 38 39 39 40 42 43 43 44 45 46 47 48 49 49 50 51 52 54 55 56 57 59 60 61
31 32 33 34 34 35 36 37 38 39 39 40 40 40 41 42 43 43 44 45 45 46 48 49 50 50 51 52 52 53 54 55 57 59 60 61 62 62
34 35 36 37 38 39 39 40 41 41 42 42 42 43 43 44 45 46 46 47 47 48 49 50 51 52 53 54 55 55 57 58 59 61 62 63 63 64
37 38 39 39 40 41 42 43 43 44 44 45 45 45 45 46 46 47 47 48 49 50 51 52 53 54 55 56 56 57 59 60 62 63 64 64 64 66
39 40 41 42 43 44 45 45 45 46 46 46 46 47 47 47 48 48 49 50 51 52 53 54 55 55 56 57 59 60 61 62 63 64 66 66 65 66
42 43 44 44 45 46 47 47 47 47 48 48 48 48 49 49 50 50 51 52 53 53 54 55 56 57 57 57 57 61 63 63 64 65 66 66 66 65
45 46 47 47 48 48 48 48 48 49 49 50 50 50 50 51 51 52 53 54 54 55 55 56 57 58 59 60 60 61 64 66 66 66 66 66 65 64
47 48 48 49 49 50 50 50 50 50 50 51 51 51 52 52 53 54 55 55 55 56 56 57 58 59 61 62 62 61 62 64 65 66 65 64 63 62
49 49 50 50 51 51 51 51 51 51 52 52 52 53 53 54 54 55 56 57 57 58 58 59 59 60 61 62 62 62 62 62 62 63 63 63 62 60
51 51 51 52 52 52 52 52 52 52 52 53 54 54 54 54 55 56 56 57 58 59 59 59 60 60 61 62 63 63 63 62 62 61 59 59 59 58
Wind_Direction
39 39 33 27 19 10 354 339 323 305 290 285 285 279 288 291 290 289 289 290 286 285 282 280 276 274 275 276 277 276 275 273 272 271 271 270 268 267
24 21 15 4 357 348 340 326 316 303 291 286 286 289 290 289 290 290 293 293 292 288 287 285 282 280 278 276 277 278 277 277 276 277 276 275 273 275
8 7 360 349 343 337 334 329 317 305 300 294 290 289 291 292 293 293 293 293 294 292 289 287 286 285 283 281 279 280 280 279 279 280 280 279 277 275
341 343 342 337 333 331 330 322 314 306 302 297 292 292 293 294 294 295 295 294 295 294 292 291 288 286 285 284 284 283 281 280 279 279 278 278 278 276
320 322 323 326 329 326 325 319 313 307 302 298 294 292 292 291 292 293 294 294 293 293 292 291 291 289 287 287 286 285 284 283 282 281 279 278 278 277
311 313 315 315 318 317 319 317 311 308 304 300 297 294 293 293 292 292 293 292 292 292 291 290 290 289 287 287 287 287 286 285 284 283 281 281 280 279
304 306 307 309 310 310 311 312 310 306 303 301 299 296 295 295 294 292 292 291 291 290 290 289 289 289 289 288 287 287 287 286 285 284 284 284 282 282
300 301 303 305 305 305 307 307 307 306 304 301 298 297 296 294 293 292 291 290 290 289 289 289 289 289 289 288 287 287 286 286 286 285 284 284 283 282
298 298 300 301 302 302 303 304 305 304 303 303 301 298 296 295 294 292 291 290 289 289 289 289 289 289 288 288 287 286 286 286 286 285 285 284 283 283
296 297 298 300 301 302 302 302 302 303 302 301 300 298 296 295 294 293 292 291 291 291 290 290 289 288 288 289 288 288 287 286 285 285 285 285 284 284
294 295 297 299 299 299 300 300 301 301 301 301 300 298 296 295 294 293 293 292 292 292 292 291 290 289 289 289 289 288 288 287 286 286 286 286 286 285
292 293 295 296 298 298 298 299 299 300 301 300 300 298 297 295 295 294 293 293 292 291 291 291 290 290 289 288 288 288 287 287 287 287 287 288 287 286
291 292 293 295 297 297 298 297 297 298 298 299 298 298 296 295 294 294 293 293 293 292 292 291 291 291 290 289 288 288 288 288 288 289 290 290 289 288
290 291 292 294 296 296 296 296 296 296 297 297 297 297 296 295 294 294 294 293 293 293 292 292 292 292 291 291 290 289 289 289 290 290 291 292 291 289
290 292 293 294 295 295 295 296 296 296 296 297 296 296 295 295 294 295 295 295 294 294 294 293 293 293 293 293 292 291 291 291 291 292 292 292 291 290
289 292 294 295 295 295 295 295 296 296 296 296 295 295 295 295 295 295 295 295 295 295 295 295 295 294 294 295 294 293 293 293 293 293 293 293 292 292
289 291 293 294 294 294 295 295 296 296 296 296 296 295 295 295 295 295 295 295 295 296 296 295 295 295 296 296 295 295 295 295 296 296 295 295 294 293
290 292 293 294 294 294 295 295 295 296 296 296 296 296 296 295 295 295 295 295 295 296 296 295 295 295 296 296 297 297 297 297 297 297 297 296 295 295
290 292 293 294 294 295 295 295 295 296 296 296 296 296 296 296 296 295 295 295 296 296 296 296 296 296 296 296 297 298 298 298 299 299 299 298 298 297
290 292 292 293 294 295 295 296 296 296 296 296 296 295 295 295 295 296 296 296 296 296 297 297 296 296 297 297 298 299 299 300 300 300 299 299 299 298
290 291 292 293 294 294 295 295 296 296 295 295 295 295 295 295 295 296 296 297 297 297 297 297 297 297 298 298 299 300 300 301 301 301 301 300 300 299
290 291 291 292 293 293 294 294 295 295 295 295 296 296 296 296 296 296 297 297 297 297 297 297 298 298 299 300 300 301 301 301 301 302 302 302 302 302
290 290 291 291 292 293 293 294 294 294 295 295 295 296 296 297 297 297 298 298 298 298 298 298 299 299 299 300 301 302 302 301 301 301 301 301 302 302
Height
5874 5873 5873 5873 5872 5872 5871 5871 5870 5870 5870 5870 5871 5871 5871 5871 5871 5870 5870 5870 5869 5869 5868 5868 5868 5867 5867 5867 5866 5866 5866 5866 5866 5866 5866 5866 5866 5866
5875 5874 5873 5873 5872 5871 5870 5869 5868 5868 5868 5868 5869 5869 5869 5869 5869 5868 5868 5867 5867 5866 5866 5865 5865 5864 5863 5863 5863 5862 5862 5862 5861 5861 5861 5861 5861 5860
5875 5874 5874 5873 5872 5870 5869 5868 5867 5866 5866 5866 5866 5866 5866 5866 5866 5865 5865 5864 5864 5863 5862 5861 5861 5860 5859 5859 5858 5857 5857 5856 5856 5856 5855 5855 5855 5854
5875 5874 5873 5872 5871 5869 5868 5866 5865 5865 5864 5864 5863 5863 5863 5863 5862 5862 5861 5861 5860 5859 5858 5857 5856 5855 5854 5854 5853 5852 5852 5851 5850 5850 5849 5849 5848 5848
5875 5873 5872 5871 5869 5868 5866 5865 5864 5863 5862 5861 5860 5860 5860 5859 5859 5858 5857 5856 5855 5854 5853 5852 5851 5850 5849 5848 5847 5846 5846 5845 5844 5843 5842 5841 5841 5840
5873 5872 5871 5869 5868 5866 5864 5863 5861 5860 5859 5858 5857 5856 5855 5854 5854 5853 5852 5851 5850 5849 5847 5846 5845 5844 5843 5842 5841 5840 5839 5837 5836 5835 5835 5834 5833 5832
5871 5870 5868 5867 5865 5863 5862 5860 5858 5856 5855 5854 5853 5852 5851 5850 5849 5847 5846 5845 5844 5842 5841 5840 5838 5837 5835 5834 5833 5831 5830 5829 5828 5827 5826 5824 5823 5822
5868 5867 5865 5864 5862 5860 5858 5856 5854 5852 5851 5849 5848 5846 5845 5844 5842 5841 5840 5838 5837 5836 5834 5832 5830 5829 5827 5826 5824 5822 5821 5819 5818 5817 5815 5814 5812 5811
5865 5863 5862 5860 5858 5856 5854 5852 5850 5848 5846 5844 5843 5841 5839 5838 5836 5834 5832 5830 5829 5827 5826 5824 5822 5820 5818 5816 5814 5812 5810 5808 5807 5805 5803 5802 5800 5798
5860 5859 5857 5855 5854 5852 5850 5848 5845 5843 5841 5839 5837 5835 5832 5830 5828 5827 5824 5822 5820 5818 5817 5815 5813 5811 5808 5805 5803 5801 5799 5797 5794 5792 5791 5789 5787 5785
5855 5854 5852 5850 5848 5846 5844 5842 5840 5837 5835 5832 5830 5827 5825 5823 5820 5818 5816 5814 5812 5810 5807 5805 5803 5801 5799 5795 5791 5788 5786 5783 5781 5778 5776 5774 5771 5769
5850 5848 5846 5844 5842 5840 5838 5836 5833 5830 5827 5825 5822 5819 5816 5814 5811 5809 5807 5805 5802 5800 5797 5794 5791 5788 5787 5784 5780 5776 5773 5769 5766 5763 5760 5757 5753 5751
5843 5841 5839 5837 5835 5833 5830 5828 5825 5822 5819 5816 5813 5810 5807 5804 5801 5799 5796 5794 5791 5788 5785 5782 5779 5775 5772 5770 5767 5763 5758 5754 5751 5747 5743 5739 5735 5730
5836 5834 5832 5829 5827 5824 5822 5819 5816 5813 5810 5807 5804 5800 5797 5794 5790 5787 5784 5781 5778 5775 5771 5768 5765 5761 5758 5755 5752 5748 5743 5738 5734 5730 5726 5721 5716 5710
5828 5825 5823 5821 5818 5815 5812 5809 5806 5803 5799 5796 5793 5789 5786 5782 5779 5775 5771 5768 5764 5760 5757 5753 5749 5746 5742 5738 5735 5731 5727 5723 5717 5712 5707 5702 5696 5690
5818 5816 5814 5811 5808 5805 5802 5798 5795 5791 5788 5785 5781 5777 5774 5770 5766 5762 5758 5755 5751 5747 5742 5738 5733 5730 5726 5721 5717 5713 5708 5703 5699 5693 5687 5682 5675 5669
5808 5806 5804 5801 5797 5794 5790 5787 5783 5779 5776 5772 5768 5764 5761 5757 5753 5748 5744 5741 5737 5733 5729 5723 5718 5713 5709 5704 5700 5695 5689 5684 5678 5672 5666 5662 5656 5648
5798 5795 5792 5789 5785 5782 5778 5774 5770 5767 5763 5759 5755 5751 5747 5743 5739 5734 5730 5726 5722 5717 5713 5708 5702 5698 5694 5689 5682 5676 5671 5665 5659 5652 5645 5639 5636 5629
5786 5783 5780 5776 5773 5769 5765 5761 5757 5753 5749 5745 5741 5736 5732 5728 5724 5720 5715 5710 5706 5701 5696 5691 5685 5680 5676 5673 5669 5659 5652 5646 5639 5633 5625 5618 5612 5607
5773 5770 5767 5763 5759 5755 5751 5747 5743 5739 5734 5730 5726 5722 5717 5713 5709 5704 5699 5695 5690 5685 5680 5674 5668 5663 5657 5653 5650 5645 5634 5625 5618 5612 5606 5599 5592 5586
5760 5756 5752 5748 5744 5740 5736 5732 5728 5724 5720 5715 5711 5707 5702 5697 5693 5688 5683 5678 5673 5668 5663 5658 5652 5645 5639 5634 5630 5626 5619 5608 5598 5590 5584 5577 5572 5566
5745 5742 5738 5734 5730 5726 5722 5717 5713 5709 5705 5700 5696 5691 5687 5682 5677 5672 5667 5662 5657 5652 5646 5641 5635 5628 5622 5616 5610 5606 5601 5594 5584 5574 5565 5556 5548 5543
5730 5727 5723 5719 5715 5711 5706 5702 5698 5694 5690 5685 5681 5676 5671 5666 5662 5656 5651 5646 5640 5635 5629 5624 5618 5612 5605 5598 5592 5586 5581 5574 5567 5560 5554 5543 5534 5526